VJC671 VVTS-VVNB

Flight info

Callsign VJC671
Flight time 1h 49m
Altitude 39000
Route KADUM2F PATMA Q2 BIVIM BISON3J
Aircraft A20N/M-SDE2E3FGHIRWXY/LB1

Departure

Time 2026-05-05 14:56
Airport Tan Son Nhat International Airport (VVTS)

Arrival

Time 2026-05-05 16:46
Airport Noi Bai International Airport (VVNB)
Time Latitude Longitude Altitude Speed Heading
2026-05-05 14:26 10.81696 106.66247 39 ft 0 kts 161°
2026-05-05 14:43 10.81703 106.66244 15 ft 1 kts 161°
2026-05-05 14:44 10.81713 106.66241 12 ft 2 kts 161°
2026-05-05 14:44 10.81728 106.66236 45 ft 2 kts 161°
2026-05-05 14:44 10.81736 106.66233 37 ft 0 kts 161°
2026-05-05 14:45 10.81746 106.66230 36 ft 3 kts 157°
2026-05-05 14:45 10.81765 106.66220 39 ft 3 kts 149°
2026-05-05 14:45 10.81782 106.66208 37 ft 3 kts 134°
2026-05-05 14:45 10.81788 106.66201 35 ft 1 kts 122°
2026-05-05 14:46 10.81792 106.66194 37 ft 1 kts 108°
2026-05-05 14:46 10.81794 106.66186 36 ft 1 kts 89°
2026-05-05 14:46 10.81794 106.66185 36 ft 0 kts 87°
2026-05-05 14:48 10.81795 106.66187 36 ft 2 kts 87°
2026-05-05 14:48 10.81804 106.66219 36 ft 8 kts 72°
2026-05-05 14:48 10.81826 106.66282 39 ft 11 kts 70°
2026-05-05 14:49 10.81858 106.66363 39 ft 14 kts 68°
2026-05-05 14:49 10.81891 106.66447 40 ft 14 kts 68°
2026-05-05 14:49 10.81929 106.66547 39 ft 15 kts 72°
2026-05-05 14:49 10.81965 106.66647 40 ft 16 kts 68°
2026-05-05 14:50 10.82007 106.66757 40 ft 17 kts 69°
2026-05-05 14:50 10.82051 106.66873 38 ft 17 kts 66°
2026-05-05 14:50 10.82134 106.66947 41 ft 17 kts 46°
2026-05-05 14:50 10.82225 106.67028 40 ft 16 kts 46°
2026-05-05 14:51 10.82278 106.67038 41 ft 8 kts 344°
2026-05-05 14:51 10.82292 106.67034 41 ft 0 kts 343°
2026-05-05 14:54 10.82293 106.67034 41 ft 1 kts 343°
2026-05-05 14:54 10.82313 106.67019 41 ft 8 kts 315°
2026-05-05 14:55 10.82334 106.66941 40 ft 15 kts 279°
2026-05-05 14:55 10.82340 106.66862 40 ft 12 kts 255°
2026-05-05 14:55 10.82315 106.66798 39 ft 13 kts 247°
2026-05-05 14:55 10.82225 106.66566 38 ft 68 kts 248°
2026-05-05 14:56 10.81975 106.65894 40 ft 130 kts 248°
2026-05-05 14:56 10.81586 106.64891 115 ft 169 kts 249°
2026-05-05 14:56 10.81130 106.63754 575 ft 176 kts 248°
2026-05-05 14:56 10.80658 106.62577 1138 ft 180 kts 247°
2026-05-05 14:57 10.80248 106.61400 1884 ft 175 kts 248°
2026-05-05 14:57 10.79828 106.60177 2263 ft 193 kts 248°
2026-05-05 14:57 10.79471 106.58782 2585 ft 216 kts 269°
2026-05-05 14:57 10.79885 106.57262 2994 ft 233 kts 304°
2026-05-05 14:58 10.81114 106.56136 3456 ft 248 kts 338°
2026-05-05 14:58 10.82221 106.55807 3824 ft 257 kts 357°
2026-05-05 14:58 10.84694 106.55897 4850 ft 271 kts
2026-05-05 14:58 10.85934 106.56051 5550 ft 271 kts
2026-05-05 14:59 10.88462 106.56399 6874 ft 276 kts
2026-05-05 14:59 10.90360 106.56665 7778 ft 280 kts
2026-05-05 14:59 10.91644 106.56844 8358 ft 284 kts
2026-05-05 14:59 10.93629 106.57120 9278 ft 288 kts
2026-05-05 15:00 10.95628 106.57410 10122 ft 294 kts 12°
2026-05-05 15:00 10.97688 106.58053 10280 ft 322 kts 28°
2026-05-05 15:00 10.99602 106.59329 10383 ft 339 kts 41°
2026-05-05 15:00 11.01797 106.61613 10722 ft 343 kts 51°
2026-05-05 15:01 11.02819 106.62898 11281 ft 343 kts 53°
2026-05-05 15:01 11.04267 106.64804 12098 ft 347 kts 53°
2026-05-05 15:01 11.05743 106.66768 12846 ft 352 kts 53°
2026-05-05 15:01 11.07227 106.68731 13596 ft 356 kts 53°
2026-05-05 15:02 11.08734 106.70710 14255 ft 361 kts 53°
2026-05-05 15:02 11.10286 106.72738 14914 ft 365 kts 53°
2026-05-05 15:02 11.11854 106.74781 15557 ft 369 kts 53°
2026-05-05 15:02 11.13451 106.76861 16183 ft 374 kts 53°
2026-05-05 15:03 11.15061 106.78960 16813 ft 378 kts 53°
2026-05-05 15:03 11.16691 106.81084 17427 ft 382 kts 53°
2026-05-05 15:03 11.18337 106.83231 18038 ft 387 kts 53°
2026-05-05 15:03 11.20010 106.85414 18574 ft 390 kts 53°
2026-05-05 15:04 11.21666 106.87575 19098 ft 394 kts 53°
2026-05-05 15:04 11.23353 106.89778 19632 ft 397 kts 53°
2026-05-05 15:04 11.25076 106.92029 20154 ft 400 kts 53°
2026-05-05 15:04 11.26800 106.94281 20682 ft 404 kts 53°
2026-05-05 15:05 11.30260 106.98803 21692 ft 411 kts 52°
2026-05-05 15:05 11.32019 107.01103 22194 ft 414 kts 52°
2026-05-05 15:05 11.33737 107.03348 22670 ft 418 kts 52°
2026-05-05 15:06 11.35658 107.05590 23166 ft 422 kts 45°
2026-05-05 15:06 11.37863 107.07591 23622 ft 425 kts 38°
2026-05-05 15:06 11.40244 107.09396 24041 ft 428 kts 37°
2026-05-05 15:06 11.42643 107.11217 24459 ft 431 kts 37°
2026-05-05 15:07 11.45047 107.13053 24865 ft 434 kts 37°
2026-05-05 15:07 11.47473 107.14908 25273 ft 436 kts 37°
2026-05-05 15:07 11.49877 107.16747 25660 ft 439 kts 37°
2026-05-05 15:07 11.52322 107.18616 26043 ft 442 kts 37°
2026-05-05 15:08 11.54775 107.20491 26444 ft 443 kts 37°
2026-05-05 15:08 11.57254 107.22387 26825 ft 446 kts 37°
2026-05-05 15:08 11.59735 107.24284 27207 ft 448 kts 37°
2026-05-05 15:08 11.62235 107.26196 27580 ft 450 kts 37°
2026-05-05 15:09 11.64767 107.28133 27947 ft 452 kts 37°
2026-05-05 15:09 11.67283 107.30058 28288 ft 454 kts 37°
2026-05-05 15:09 11.69821 107.32000 28624 ft 457 kts 37°
2026-05-05 15:09 11.72365 107.33947 28948 ft 459 kts 37°
2026-05-05 15:10 11.74930 107.35911 29274 ft 461 kts 37°
2026-05-05 15:10 11.77455 107.37845 29581 ft 464 kts 37°
2026-05-05 15:10 11.80084 107.39859 29906 ft 466 kts 37°
2026-05-05 15:10 11.82660 107.41833 30178 ft 468 kts 37°
2026-05-05 15:11 11.85273 107.43835 30460 ft 470 kts 37°
2026-05-05 15:11 11.87900 107.45849 30745 ft 472 kts 37°
2026-05-05 15:11 11.90503 107.47844 31042 ft 474 kts 37°
2026-05-05 15:11 11.93151 107.49875 31386 ft 474 kts 37°
2026-05-05 15:12 11.95783 107.51894 31779 ft 473 kts 37°
2026-05-05 15:12 11.98410 107.53911 32150 ft 472 kts 37°
2026-05-05 15:12 12.01024 107.55917 32526 ft 472 kts 37°
2026-05-05 15:12 12.03667 107.57946 32872 ft 472 kts 37°
2026-05-05 15:13 12.06285 107.59956 33204 ft 472 kts 37°
2026-05-05 15:13 12.08815 107.61899 33524 ft 472 kts 37°
2026-05-05 15:13 12.11445 107.63921 33857 ft 472 kts 37°
2026-05-05 15:13 12.14071 107.65939 34161 ft 471 kts 37°
2026-05-05 15:14 12.16695 107.67956 34442 ft 471 kts 37°
2026-05-05 15:14 12.19280 107.69944 34738 ft 470 kts 37°
2026-05-05 15:14 12.21892 107.71953 35028 ft 469 kts 37°
2026-05-05 15:14 12.24502 107.73961 35305 ft 469 kts 37°
2026-05-05 15:15 12.27116 107.75972 35593 ft 469 kts 37°
2026-05-05 15:15 12.29737 107.77968 35866 ft 468 kts 33°
2026-05-05 15:15 12.32535 107.79581 36130 ft 467 kts 22°
2026-05-05 15:15 12.35618 107.80647 36382 ft 465 kts 12°
2026-05-05 15:16 12.38798 107.81103 36668 ft 463 kts
2026-05-05 15:16 12.42034 107.81166 36960 ft 462 kts 360°
2026-05-05 15:16 12.45245 107.81225 37265 ft 461 kts
2026-05-05 15:16 12.48418 107.81288 37560 ft 459 kts
2026-05-05 15:17 12.51625 107.81352 37838 ft 458 kts 360°
2026-05-05 15:17 12.54829 107.81416 38137 ft 457 kts 360°
2026-05-05 15:17 12.57977 107.81479 38393 ft 456 kts 360°
2026-05-05 15:17 12.61153 107.81542 38650 ft 455 kts 360°
2026-05-05 15:18 12.64326 107.81604 38849 ft 454 kts 360°
2026-05-05 15:18 12.70601 107.81728 38937 ft 452 kts 360°
2026-05-05 15:19 12.76881 107.81852 38933 ft 452 kts 360°
2026-05-05 15:19 12.83187 107.81977 38935 ft 453 kts 360°
2026-05-05 15:20 12.89470 107.82101 38933 ft 453 kts 360°
2026-05-05 15:20 12.95791 107.82226 38932 ft 454 kts 360°
2026-05-05 15:21 13.02019 107.82349 38939 ft 454 kts 360°
2026-05-05 15:21 13.08134 107.82470 38941 ft 455 kts 360°
2026-05-05 15:22 13.14477 107.82596 38945 ft 456 kts 360°
2026-05-05 15:22 13.20817 107.82722 38933 ft 453 kts 360°
2026-05-05 15:23 13.27091 107.82847 38931 ft 453 kts 360°
2026-05-05 15:23 13.33400 107.82972 38935 ft 452 kts 360°
2026-05-05 15:24 13.39682 107.83102 38934 ft 451 kts 360°
2026-05-05 15:24 13.45922 107.83233 38937 ft 450 kts 360°
2026-05-05 15:25 13.52204 107.83364 38940 ft 450 kts 360°
2026-05-05 15:25 13.58476 107.83495 38935 ft 450 kts 360°
2026-05-05 15:26 13.64488 107.83620 38941 ft 449 kts 360°
2026-05-05 15:26 13.70727 107.83750 38944 ft 449 kts 360°
2026-05-05 15:27 13.76961 107.83880 38955 ft 449 kts 360°
2026-05-05 15:27 13.83227 107.84011 38957 ft 448 kts 360°
2026-05-05 15:28 13.89473 107.84142 38960 ft 448 kts 360°
2026-05-05 15:28 13.95678 107.84271 38962 ft 448 kts 360°
2026-05-05 15:29 14.01874 107.84392 38965 ft 448 kts 359°
2026-05-05 15:29 14.08090 107.84386 38963 ft 448 kts 358°
2026-05-05 15:30 14.14348 107.84365 38967 ft 448 kts 358°
2026-05-05 15:30 14.20566 107.84361 38970 ft 449 kts 358°
2026-05-05 15:31 14.26826 107.84360 38970 ft 449 kts 358°
2026-05-05 15:31 14.33061 107.84360 38983 ft 449 kts 358°
2026-05-05 15:32 14.39339 107.84361 38985 ft 449 kts 358°
2026-05-05 15:32 14.45590 107.84360 38990 ft 450 kts 358°
2026-05-05 15:33 14.51864 107.84360 38992 ft 450 kts 358°
2026-05-05 15:33 14.58098 107.84361 39001 ft 449 kts 358°
2026-05-05 15:34 14.64361 107.84361 38994 ft 447 kts 358°
2026-05-05 15:34 14.70551 107.84361 38996 ft 448 kts 358°
2026-05-05 15:35 14.76815 107.84360 39002 ft 449 kts 358°
2026-05-05 15:35 14.83047 107.84361 39003 ft 449 kts 358°
2026-05-05 15:36 14.89320 107.84367 39015 ft 450 kts 359°
2026-05-05 15:36 14.95565 107.84598 39014 ft 451 kts
2026-05-05 15:37 15.01864 107.84878 39024 ft 452 kts
2026-05-05 15:37 15.08173 107.85129 39018 ft 452 kts
2026-05-05 15:38 15.14435 107.85369 39007 ft 453 kts
2026-05-05 15:38 15.20750 107.85609 39017 ft 454 kts
2026-05-05 15:39 15.27074 107.85850 39002 ft 454 kts
2026-05-05 15:39 15.33389 107.86090 38994 ft 455 kts
2026-05-05 15:40 15.39701 107.86331 38987 ft 455 kts
2026-05-05 15:40 15.46053 107.86573 38982 ft 456 kts
2026-05-05 15:41 15.52404 107.86816 38987 ft 456 kts
2026-05-05 15:41 15.58716 107.87057 38989 ft 455 kts
2026-05-05 15:42 15.65058 107.87299 38960 ft 453 kts 360°
2026-05-05 15:42 15.71341 107.87540 38962 ft 453 kts 360°
2026-05-05 15:43 15.77654 107.87781 38955 ft 453 kts 360°
2026-05-05 15:43 15.83930 107.88021 38953 ft 453 kts 360°
2026-05-05 15:44 15.90063 107.88255 38954 ft 452 kts 359°
2026-05-05 15:44 15.95261 107.87884 38955 ft 448 kts 347°
2026-05-05 15:45 16.01203 107.86146 38952 ft 443 kts 335°
2026-05-05 15:45 16.07690 107.82995 38952 ft 442 kts 332°
2026-05-05 15:46 16.12332 107.80723 38953 ft 442 kts 332°
2026-05-05 15:46 16.17901 107.77990 38954 ft 442 kts 332°
2026-05-05 15:47 16.23489 107.75241 38958 ft 443 kts 332°
2026-05-05 15:47 16.29038 107.72508 38965 ft 443 kts 332°
2026-05-05 15:48 16.34601 107.69766 38965 ft 443 kts 332°
2026-05-05 15:48 16.40180 107.67015 38962 ft 443 kts 332°
2026-05-05 15:49 16.45759 107.64261 38959 ft 443 kts 332°
2026-05-05 15:49 16.51300 107.61528 38950 ft 443 kts 332°
2026-05-05 15:50 16.56860 107.58800 38938 ft 443 kts 332°
2026-05-05 15:50 16.62449 107.56056 38929 ft 443 kts 332°
2026-05-05 15:51 16.68040 107.53308 38918 ft 443 kts 332°
2026-05-05 15:51 16.73602 107.50572 38912 ft 443 kts 332°
2026-05-05 15:52 16.79171 107.47830 38913 ft 444 kts 332°
2026-05-05 15:52 16.84773 107.45071 38912 ft 444 kts 332°
2026-05-05 15:53 16.90348 107.42323 38914 ft 445 kts 332°
2026-05-05 15:53 16.95929 107.39576 38924 ft 445 kts 332°
2026-05-05 15:54 17.01557 107.36806 38928 ft 445 kts 332°
2026-05-05 15:54 17.07108 107.34036 38933 ft 445 kts 332°
2026-05-05 15:55 17.12692 107.31214 38938 ft 445 kts 332°
2026-05-05 15:55 17.18274 107.28399 38940 ft 444 kts 332°
2026-05-05 15:56 17.23813 107.25607 38927 ft 443 kts 331°
2026-05-05 15:56 17.29362 107.22809 38926 ft 442 kts 331°
2026-05-05 15:57 17.34896 107.20016 38928 ft 442 kts 332°
2026-05-05 15:57 17.40422 107.17224 38930 ft 442 kts 332°
2026-05-05 15:58 17.45966 107.14423 38929 ft 442 kts 332°
2026-05-05 15:58 17.51523 107.11612 38931 ft 442 kts 332°
2026-05-05 15:59 17.57043 107.08819 38934 ft 442 kts 332°
2026-05-05 15:59 17.62595 107.06007 38935 ft 441 kts 332°
2026-05-05 16:00 17.68091 107.03221 38935 ft 441 kts 332°
2026-05-05 16:00 17.73602 107.00427 38931 ft 441 kts 332°
2026-05-05 16:01 17.79145 106.97613 38936 ft 442 kts 332°
2026-05-05 16:01 17.84681 106.94803 38932 ft 442 kts 332°
2026-05-05 16:02 17.90228 106.91987 38930 ft 442 kts 332°
2026-05-05 16:02 17.95772 106.89196 38935 ft 442 kts 332°
2026-05-05 16:03 18.01247 106.86441 38941 ft 443 kts 332°
2026-05-05 16:03 18.06835 106.83622 38940 ft 444 kts 333°
2026-05-05 16:04 18.12371 106.80828 38937 ft 444 kts 332°
2026-05-05 16:04 18.17951 106.78009 38938 ft 443 kts 333°
2026-05-05 16:05 18.23516 106.75196 38935 ft 443 kts 332°
2026-05-05 16:05 18.29091 106.72376 38936 ft 443 kts 333°
2026-05-05 16:06 18.34622 106.69576 38941 ft 443 kts 333°
2026-05-05 16:06 18.40140 106.66778 38937 ft 439 kts 331°
2026-05-05 16:07 18.45482 106.63972 38933 ft 420 kts 331°
2026-05-05 16:07 18.50631 106.61320 38934 ft 403 kts 332°
2026-05-05 16:08 18.55587 106.58816 38939 ft 390 kts 334°
2026-05-05 16:08 18.60589 106.56414 38939 ft 401 kts 334°
2026-05-05 16:09 18.65718 106.53886 38937 ft 412 kts 333°
2026-05-05 16:09 18.70946 106.51245 38936 ft 422 kts 333°
2026-05-05 16:10 18.76308 106.48528 38940 ft 432 kts 333°
2026-05-05 16:10 18.81793 106.45750 38936 ft 439 kts 333°
2026-05-05 16:11 18.87271 106.42977 38935 ft 436 kts 333°
2026-05-05 16:12 18.98229 106.37442 38934 ft 437 kts 333°
2026-05-05 16:13 19.11925 106.30537 38936 ft 436 kts 333°
2026-05-05 16:13 19.17404 106.27770 38934 ft 436 kts 332°
2026-05-05 16:14 19.28342 106.22241 38936 ft 436 kts 332°
2026-05-05 16:15 19.39240 106.16725 38933 ft 435 kts 332°
2026-05-05 16:16 19.50464 106.11911 38928 ft 440 kts 347°
2026-05-05 16:17 19.56607 106.11489 38925 ft 445 kts
2026-05-05 16:17 19.59696 106.11840 38919 ft 447 kts
2026-05-05 16:18 19.68931 106.12949 38925 ft 447 kts
2026-05-05 16:19 19.78207 106.14061 38920 ft 447 kts
2026-05-05 16:19 19.87487 106.15180 38922 ft 447 kts
2026-05-05 16:20 19.99811 106.16667 38925 ft 447 kts
2026-05-05 16:21 20.05998 106.17414 38574 ft 447 kts
2026-05-05 16:22 20.15302 106.18538 37785 ft 450 kts
2026-05-05 16:22 20.21514 106.19289 37274 ft 452 kts
2026-05-05 16:23 20.27779 106.20047 36756 ft 454 kts
2026-05-05 16:23 20.30936 106.20429 36159 ft 458 kts
2026-05-05 16:23 20.37315 106.21202 34624 ft 463 kts
2026-05-05 16:24 20.40517 106.21588 33481 ft 473 kts
2026-05-05 16:24 20.43815 106.21986 32497 ft 478 kts
2026-05-05 16:24 20.49354 106.22661 31058 ft 479 kts
2026-05-05 16:25 20.53531 106.23171 30201 ft 474 kts
2026-05-05 16:25 20.60039 106.23964 28846 ft 464 kts
2026-05-05 16:25 20.63234 106.24354 28200 ft 459 kts
2026-05-05 16:26 20.69521 106.25120 26889 ft 450 kts
2026-05-05 16:26 20.75665 106.25868 25535 ft 445 kts
2026-05-05 16:27 20.78723 106.26241 24891 ft 441 kts
2026-05-05 16:27 20.81767 106.26611 24265 ft 438 kts
2026-05-05 16:27 20.84802 106.26981 23620 ft 436 kts
2026-05-05 16:27 20.87818 106.27349 22921 ft 434 kts
2026-05-05 16:28 20.89798 106.27591 22508 ft 430 kts
2026-05-05 16:28 20.93763 106.28076 21401 ft 429 kts
2026-05-05 16:28 20.95727 106.28314 20797 ft 431 kts
2026-05-05 16:28 20.98712 106.28678 20096 ft 428 kts
2026-05-05 16:29 21.01652 106.29038 19435 ft 425 kts
2026-05-05 16:29 21.04584 106.29398 18788 ft 421 kts
2026-05-05 16:29 21.08415 106.29867 17931 ft 415 kts
2026-05-05 16:29 21.10345 106.30103 17484 ft 412 kts
2026-05-05 16:30 21.13180 106.30451 16820 ft 407 kts
2026-05-05 16:30 21.15976 106.30795 16174 ft 402 kts
2026-05-05 16:30 21.18736 106.30866 15525 ft 393 kts 350°
2026-05-05 16:30 21.21312 106.30142 14903 ft 384 kts 334°
2026-05-05 16:31 21.23543 106.28654 14289 ft 375 kts 316°
2026-05-05 16:31 21.25184 106.26549 13788 ft 365 kts 299°
2026-05-05 16:31 21.26092 106.24050 13237 ft 357 kts 282°
2026-05-05 16:31 21.26541 106.21451 12697 ft 351 kts 279°
2026-05-05 16:32 21.26990 106.18894 12166 ft 346 kts 282°
2026-05-05 16:32 21.27518 106.16560 11675 ft 342 kts 284°
2026-05-05 16:32 21.28178 106.14127 11122 ft 339 kts 287°
2026-05-05 16:32 21.28902 106.11724 10615 ft 335 kts 288°
2026-05-05 16:33 21.29637 106.09386 10374 ft 324 kts 288°
2026-05-05 16:33 21.30346 106.07160 10246 ft 309 kts 288°
2026-05-05 16:33 21.31028 106.05021 10126 ft 295 kts 288°
2026-05-05 16:33 21.31676 106.02980 9833 ft 289 kts 288°
2026-05-05 16:34 21.32316 106.00962 9466 ft 285 kts 288°
2026-05-05 16:34 21.32950 105.98956 9082 ft 282 kts 288°
2026-05-05 16:34 21.33574 105.96979 8796 ft 276 kts 288°
2026-05-05 16:34 21.34181 105.95057 8441 ft 274 kts 288°
2026-05-05 16:35 21.34793 105.93114 8050 ft 272 kts 288°
2026-05-05 16:35 21.35400 105.91190 7686 ft 271 kts 288°
2026-05-05 16:35 21.35996 105.89301 7302 ft 270 kts 288°
2026-05-05 16:35 21.36596 105.87395 6929 ft 269 kts 288°
2026-05-05 16:36 21.37204 105.85494 6550 ft 269 kts 288°
2026-05-05 16:36 21.37803 105.83597 6161 ft 268 kts 288°
2026-05-05 16:36 21.38233 105.81653 5789 ft 266 kts 275°
2026-05-05 16:36 21.38246 105.79783 5433 ft 264 kts 263°
2026-05-05 16:37 21.38046 105.77832 5062 ft 263 kts 263°
2026-05-05 16:37 21.37862 105.75883 4681 ft 263 kts 263°
2026-05-05 16:37 21.37686 105.73926 4263 ft 261 kts 263°
2026-05-05 16:37 21.37518 105.72035 4140 ft 250 kts 263°
2026-05-05 16:38 21.37358 105.70223 4029 ft 243 kts 263°
2026-05-05 16:38 21.37201 105.68449 3933 ft 231 kts 263°
2026-05-05 16:38 21.37059 105.66842 3917 ft 202 kts 262°
2026-05-05 16:38 21.36602 105.65495 4002 ft 197 kts 230°
2026-05-05 16:39 21.35520 105.64662 3969 ft 187 kts 194°
2026-05-05 16:39 21.34409 105.64375 3939 ft 168 kts 191°
2026-05-05 16:39 21.33330 105.64115 3812 ft 151 kts 191°
2026-05-05 16:39 21.32381 105.63883 3706 ft 132 kts 190°
2026-05-05 16:40 21.31501 105.63665 3440 ft 128 kts 190°
2026-05-05 16:40 21.30630 105.63450 3140 ft 130 kts 190°
2026-05-05 16:40 21.29750 105.63229 2860 ft 129 kts 190°
2026-05-05 16:40 21.28880 105.63014 2617 ft 125 kts 187°
2026-05-05 16:41 21.28038 105.63005 2575 ft 127 kts 166°
2026-05-05 16:41 21.27730 105.63106 2552 ft 126 kts 153°
2026-05-05 16:41 21.27219 105.63591 2514 ft 125 kts 136°
2026-05-05 16:41 21.26869 105.64242 2465 ft 126 kts 116°
2026-05-05 16:42 21.26571 105.65125 2405 ft 125 kts 110°
2026-05-05 16:42 21.26322 105.66024 2363 ft 126 kts 110°
2026-05-05 16:42 21.26052 105.66917 2303 ft 126 kts 111°
2026-05-05 16:42 21.25783 105.67823 2227 ft 126 kts 109°
2026-05-05 16:43 21.25561 105.68729 2078 ft 127 kts 106°
2026-05-05 16:43 21.25385 105.69652 1925 ft 127 kts 109°
2026-05-05 16:43 21.25124 105.70557 1752 ft 126 kts 112°
2026-05-05 16:43 21.24841 105.71445 1552 ft 125 kts 114°
2026-05-05 16:44 21.24552 105.72325 1274 ft 128 kts 115°
2026-05-05 16:44 21.24237 105.73244 1139 ft 135 kts 112°
2026-05-05 16:44 21.23914 105.74241 1072 ft 144 kts 110°
2026-05-05 16:44 21.23666 105.75203 908 ft 131 kts 103°
2026-05-05 16:45 21.23536 105.75973 717 ft 129 kts 105°
2026-05-05 16:45 21.23264 105.76805 550 ft 118 kts 113°
2026-05-05 16:45 21.23000 105.77649 371 ft 121 kts 108°
2026-05-05 16:45 21.22761 105.78484 237 ft 117 kts 111°
2026-05-05 16:46 21.22520 105.79320 91 ft 118 kts 108°
2026-05-05 16:46 21.22291 105.80090 49 ft 91 kts 107°
2026-05-05 16:46 21.22164 105.80526 51 ft 31 kts 106°
2026-05-05 16:46 21.22112 105.80706 53 ft 26 kts 107°
2026-05-05 16:47 21.22054 105.80902 52 ft 29 kts 108°
2026-05-05 16:47 21.21999 105.81072 51 ft 6 kts 110°
2026-05-05 16:47 21.21985 105.81084 50 ft 4 kts 146°
2026-05-05 16:47 21.21966 105.81079 51 ft 3 kts 223°
2026-05-05 16:48 21.21958 105.81050 51 ft 5 kts 285°
2026-05-05 16:48 21.21946 105.81012 50 ft 8 kts 254°
2026-05-05 16:48 21.21931 105.80938 50 ft 12 kts 258°
2026-05-05 16:48 21.21911 105.80841 49 ft 15 kts 257°
2026-05-05 16:49 21.21866 105.80735 49 ft 17 kts 213°
2026-05-05 16:49 21.21800 105.80712 48 ft 11 kts 194°
2026-05-05 16:49 21.21721 105.80675 48 ft 13 kts 234°
2026-05-05 16:49 21.21742 105.80578 48 ft 16 kts 288°
2026-05-05 16:50 21.21778 105.80453 48 ft 19 kts 287°
2026-05-05 16:50 21.21820 105.80302 48 ft 22 kts 286°
2026-05-05 16:50 21.21867 105.80137 45 ft 23 kts 286°
2026-05-05 16:50 21.21913 105.79977 48 ft 21 kts 287°
2026-05-05 16:51 21.21958 105.79814 48 ft 25 kts 285°
2026-05-05 16:51 21.21999 105.79660 48 ft 22 kts 285°
2026-05-05 16:51 21.22015 105.79551 48 ft 9 kts 246°
2026-05-05 16:51 21.21977 105.79521 48 ft 8 kts 233°
2026-05-05 16:52 21.21969 105.79458 48 ft 10 kts 300°
2026-05-05 16:52 21.21969 105.79396 48 ft 7 kts 208°
2026-05-05 16:52 21.21916 105.79381 48 ft 7 kts 194°
2026-05-05 16:52 21.21883 105.79371 48 ft 3 kts 197°
2026-05-05 16:53 21.21870 105.79367 48 ft 0 kts 197°